Location: Boulder, CO
(40.0083°N, 105.2472°W)
Time: 09:17:52
(UTC-06:00)

SORCE - Visible Passes

Search period start: 31 August 2015 00:00
Search period end: 10 September 2015 00:00
Orbit: 587 x 622 km, 40.0° (Epoch: 30 August)

Date Brightness Start Highest point End Pass type
(mag) Time Alt. Az. Time Alt. Az. Time Alt. Az.
31 Aug 8.3 05:31:39 10° S 05:34:23 16° SE 05:37:13 10° ESE visible
01 Sep 7.7 05:42:12 10° SSW 05:45:55 26° SSE 05:49:43 10° E visible
02 Sep 8.5 04:15:55 10° SSE 04:16:15 10° SE 04:17:14 10° SE visible
02 Sep 7.0 05:53:20 10° SW 05:57:31 40° SSE 06:01:46 10° E visible
03 Sep 7.9 04:27:15 18° SSE 04:27:44 18° SSE 04:30:53 10° ESE visible
04 Sep 7.2 04:38:32 28° S 04:39:17 29° SSE 04:43:12 10° E visible
05 Sep 6.6 04:49:46 36° SSW 04:50:54 44° SSE 04:55:12 10° E visible
06 Sep 8.8 03:24:13 11° E 03:24:13 11° E 03:24:29 10° E visible
06 Sep 6.1 05:00:57 36° SW 05:02:35 63° SSE 05:07:02 10° E visible
07 Sep 8.4 03:35:23 17° E 03:35:23 17° E 03:36:40 10° E visible
07 Sep 5.9 05:12:08 29° WSW 05:14:20 80° S 05:18:50 10° E visible
08 Sep 7.9 03:46:33 25° E 03:46:33 25° E 03:48:37 10° E visible
08 Sep 5.9 05:23:18 22° W 05:26:07 90° S 05:30:38 10° E visible
09 Sep 7.3 03:57:43 35° E 03:57:43 35° E 04:00:25 10° E visible
09 Sep 6.0 05:34:28 17° W 05:37:54 89° NNW 05:42:26 10° E visible
